Temp
-0 -0 -0 -0 -1 -1 -1 -2 -2 -1 -1 -1 -2 -2 -2 -2 -2 -2 -2 -1 -1 0 2 2 2 2 3 4 3 2 3 4 3 2 3 4 4 6 6 8 8 7 5 6 7 6 6 13 13 11 13 13 13 14
-0 -0 0 -0 -0 -1 -1 -1 -2 -1 -1 -2 -1 -2 -2 -2 -2 -2 -2 -2 -1 -1 1 1 1 1 2 2 2 2 3 3 4 3 3 2 4 4 5 5 9 7 4 7 8 9 12 12 12 12 10 12 12 12
0 1 0 -0 -0 -1 -1 -1 -1 -1 -1 -1 -1 -2 -2 -2 -2 -2 -2 -2 -2 -2 -1 -0 0 -0 0 0 1 1 2 3 3 3 3 2 2 5 4 6 6 7 7 6 8 10 11 12 11 11 11 11 12 11
0 0 -0 -0 -0 -1 -1 -1 -1 -1 -2 -1 -1 -1 -2 -2 -2 -2 -2 -2 -2 -1 -0 1 1 0 0 0 -0 0 1 2 2 2 1 2 3 4 4 5 5 5 6 4 6 10 10 10 11 10 9 9 9 10
-1 -0 -0 -1 -0 -1 -1 -1 -1 -1 -1 -1 -1 -1 -1 -2 -2 -2 -2 -2 -2 -0 1 1 1 1 1 0 0 0 0 1 1 2 1 2 4 4 5 4 5 6 6 4 7 10 10 11 9 8 8 8 9 9
-1 -1 -1 -1 -1 -1 -1 -1 -1 -1 -1 -1 -1 -1 -1 -1 -2 -2 -2 -2 -2 -1 -2 1 2 1 1 0 0 -0 -0 0 0 0 2 2 3 2 1 4 6 7 5 6 8 9 9 8 9 9 9 8 7 6
-1 -1 -1 -1 -1 -1 -1 -1 -1 -1 -1 -1 -1 -1 -1 -1 -2 -2 -2 -1 -1 -3 -2 -0 2 2 1 1 1 1 1 0 -0 -0 0 2 3 3 2 2 4 5 5 7 8 8 8 8 9 8 8 8 6 5
-2 -1 -1 -1 -1 -1 -1 -1 -1 -1 -1 -1 -1 -1 -1 -1 -2 -2 -1 0 -2 -3 -3 -1 1 1 1 2 2 1 -1 -1 -1 -0 1 2 2 2 1 4 5 5 7 8 8 8 8 8 7 7 7 8 8 6
-2 -2 -2 -1 -1 -1 -1 -1 -1 -1 -1 -2 -1 -1 -1 -2 -2 -2 -2 -2 -3 -2 -1 -0 2 2 1 1 1 -2 -1 0 1 1 2 1 1 2 4 5 5 6 7 8 8 7 7 7 7 8 7 7 8 8
-2 -2 -2 -2 -1 -1 -1 -1 -1 -1 -1 -1 -2 -3 -3 -3 -3 -3 -3 -3 -3 -2 -1 1 3 3 1 1 1 -0 -1 1 1 2 2 1 3 5 5 4 4 5 6 6 6 7 8 7 7 7 7 8 8 8
-2 -2 -2 -2 -3 -2 -2 -2 -2 -3 -3 -2 -3 -3 -3 -3 -3 -3 -2 -0 -1 -0 1 2 2 3 1 2 1 1 1 3 2 2 3 3 5 6 4 3 2 3 3 4 4 4 5 5 5 6 6 6 5 5
-2 -2 -3 -3 -3 -3 -3 -3 -2 -2 -1 -1 -3 -3 -3 -3 -2 -1 0 2 2 2 4 3 3 2 2 0 1 1 1 2 2 3 2 3 4 3 2 2 2 2 2 3 3 3 3 3 3 4 4 3 3 4
-2 -2 -2 -2 -2 -2 -1 -2 -1 -2 -1 -1 -0 -1 -1 -1 -1 -1 -0 1 2 3 3 3 2 1 -0 1 0 1 1 2 3 2 4 5 5 3 2 1 1 1 1 1 1 -0 -0 2 2 2 2 3 4 4
-2 -2 -2 -2 -2 -2 -2 -2 -2 -1 -2 -0 1 -2 0 -0 1 3 4 4 3 3 2 2 0 0 -0 2 2 2 3 3 3 3 5 5 3 1 -1 -1 0 -1 -1 -1 -0 0 1 1 2 2 1 0 1 2
-1 -1 -1 -1 -1 -1 -1 -1 -2 -2 -2 -1 0 -0 -0 1 1 0 0 1 1 0 1 1 1 1 3 1 2 2 2 3 5 6 5 3 1 -0 -1 -2 -2 -1 -1 -2 -2 -1 -1 -1 -1 -1 -0 -1 -0 0
-1 -1 -1 -1 -0 -1 -1 -2 -2 -2 -2 -1 0 -0 -1 -1 -0 -2 -1 -0 -0 -1 0 -0 3 3 3 4 3 3 4 5 5 4 3 1 -1 -1 -2 -2 -2 -2 -2 -1 -1 -1 -1 -1 -1 -2 -2 -1 -1 -1
-1 -1 -1 -1 -0 -1 -1 -1 -2 -2 -1 1 -0 -2 -2 -1 -1 -2 -2 -2 -2 -1 2 4 3 4 4 4 4 5 5 4 3 3 2 0 -1 -2 -2 -3 -2 -3 -2 -2 -2 -2 -2 -2 -3 -3 -3 -3 -3 -3
-2 -2 -1 -1 -1 -2 -2 -1 -1 -2 -0 -1 -1 -2 -2 -2 -2 -2 -2 -2 -1 0 2 4 4 4 3 4 5 5 4 1 1 1 0 -1 -2 -2 -2 -3 -3 -3 -3 -2 -3 -3 -3 -4 -5 -5 -5 -4 -4 -5
-2 -1 -1 -1 -1 -1 -0 -0 -0 1 1 -1 -2 -2 -2 -2 -2 -2 -2 -2 -1 -0 1 3 3 4 5 5 3 1 1 2 2 0 -1 0 -1 -1 -1 -2 -3 -3 -3 -3 -4 -4 -5 -5 -5 -5 -6 -6 -6 -6
-2 -2 -2 -1 -1 -1 0 1 -1 1 1 -0 -1 -2 -1 -2 -2 -2 -1 -1 -0 0 1 2 4 4 3 2 2 2 2 2 1 1 -0 -1 -2 -2 -3 -2 -3 -3 -4 -4 -5 -5 -5 -5 -6 -6 -6 -6 -6 -7
-4 -4 -3 -3 -2 -1 -0 0 0 -1 -1 0 -1 -2 -1 -2 -2 -2 -1 -1 -1 1 2 3 2 0 1 0 0 1 1 1 1 1 1 -1 -2 -2 -2 -3 -4 -5 -5 -5 -5 -5 -5 -5 -6 -6 -7 -7 -7 -7
-4 -4 -3 -3 -2 -2 -1 -3 -2 -2 -1 -1 -1 -1 -1 -1 -1 -1 -1 -1 1 -3 -3 -3 -3 -3 -2 -1 -1 -0 -0 -1 -1 -1 -1 -1 -2 -3 -3 -3 -4 -5 -5 -4 -4 -5 -5 -5 -6 -6 -7 -7 -7 -8
-4 -3 -3 -2 -3 -2 -2 -2 -1 -0 0 1 0 1 0 0 -1 -2 -1 -2 -3 -4 -3 -3 -3 -3 -3 -3 -3 -2 -2 -2 -2 -2 -2 -2 -2 -2 -3 -3 -4 -4 -4 -4 -4 -5 -5 -5 -6 -6 -7 -7 -8 -8
-4 -4 -4 -3 -2 -2 -3 -2 -1 -0 -0 1 1 -0 -1 -1 -1 -0 -1 -3 -4 -3 -3 -3 -3 -3 -3 -3 -3 -3 -3 -3 -2 -2 -2 -2 -2 -2 -3 -3 -4 -4 -4 -4 -5 -5 -5 -6 -6 -6 -7 -7 -8 -8
-3 -5 -4 -3 -3 -2 -2 -2 -2 -1 -2 -1 -1 -0 -1 -1 -0 -1 -1 -2 -3 -4 -4 -4 -4 -3 -3 -4 -4 -3 -3 -3 -3 -3 -3 -3 -2 -2 -3 -3 -4 -4 -4 -4 -5 -5 -5 -5 -6 -6 -7 -7 -8 -8
-4 -5 -4 -4 -3 -3 -2 -2 -2 -2 -2 -1 -2 -2 -1 -0 -1 -1 -2 -4 -4 -4 -5 -5 -5 -4 -4 -4 -4 -5 -4 -4 -4 -3 -3 -3 -3 -3 -3 -3 -4 -4 -4 -4 -4 -5 -5 -5 -6 -6 -7 -7 -7 -7
-7 -8 -7 -7 -6 -4 -3 -3 -3 -2 -2 -2 -2 -2 -1 -1 -1 -3 -5 -7 -7 -7 -7 -7 -7 -6 -5 -5 -6 -5 -4 -4 -4 -4 -4 -4 -4 -4 -4 -4 -4 -4 -4 -4 -4 -5 -5 -5 -6 -6 -6 -7 -7 -7
-8 -9 -9 -8 -6 -5 -4 -4 -4 -4 -4 -4 -3 -3 -2 -3 -5 -6 -8 -8 -8 -8 -7 -7 -7 -7 -7 -6 -6 -6 -5 -4 -4 -4 -4 -4 -4 -4 -4 -4 -4 -4 -4 -4 -5 -5 -5 -5 -6 -6 -6 -7 -7 -7
-8 -10 -9 -8 -7 -6 -7 -7 -7 -7 -7 -6 -4 -3 -4 -8 -9 -9 -9 -9 -8 -8 -8 -8 -7 -7 -7 -6 -6 -6 -5 -5 -5 -5 -4 -4 -4 -5 -5 -5 -5 -5 -5 -5 -5 -5 -5 -5 -6 -6 -7 -7 -7 -7
-10 -10 -8 -7 -8 -7 -8 -8 -8 -8 -8 -7 -7 -8 -9 -10 -11 -11 -11 -11 -10 -10 -10 -9 -9 -8 -7 -7 -6 -6 -6 -5 -5 -5 -4 -5 -5 -5 -5 -5 -5 -5 -5 -6 -6 -6 -6 -6 -7 -7 -7 -8 -8 -8
-10 -9 -8 -9 -8 -8 -8 -9 -8 -8 -7 -7 -7 -6 -8 -9 -10 -12 -12 -12 -12 -12 -11 -9 -9 -10 -9 -8 -7 -7 -6 -6 -6 -5 -5 -5 -5 -5 -6 -6 -6 -6 -6 -6 -6 -6 -7 -7 -7 -8 -8 -8 -9 -9
-10 -9 -10 -9 -8 -9 -9 -9 -9 -8 -6 -6 -6 -7 -8 -8 -9 -11 -13 -13 -13 -13 -12 -11 -10 -9 -9 -8 -8 -7 -7 -7 -7 -6 -6 -6 -6 -6 -6 -6 -6 -7 -7 -6 -7 -7 -7 -7 -8 -8 -9 -9 -9 -10
-10 -10 -9 -9 -9 -9 -9 -10 -8 -6 -6 -8 -11 -11 -10 -10 -11 -13 -14 -14 -14 -14 -14 -12 -10 -10 -10 -9 -8 -8 -8 -8 -7 -7 -7 -8 -8 -8 -8 -7 -7 -7 -7 -7 -7 -7 -8 -8 -8 -8 -9 -9 -9 -10
Height
1268 1266 1267 1270 1279 1288 1298 1309 1321 1331 1341 1349 1359 1369 1378 1386 1393 1400 1407 1412 1417 1418 1419 1420 1423 1424 1424 1423 1423 1427 1424 1422 1424 1425 1420 1411 1406 1398 1394 1387 1384 1382 1386 1381 1383 1388 1381 1357 1359 1360 1355 1359 1358 1357
1251 1248 1252 1259 1268 1278 1290 1302 1314 1325 1335 1344 1352 1363 1372 1381 1389 1397 1404 1408 1415 1418 1417 1417 1419 1421 1423 1423 1425 1424 1423 1422 1420 1420 1417 1414 1403 1400 1396 1388 1383 1383 1391 1373 1374 1364 1360 1358 1356 1356 1356 1357 1357 1358
1233 1228 1238 1251 1263 1275 1286 1298 1309 1320 1330 1339 1347 1358 1367 1376 1384 1391 1399 1406 1412 1415 1417 1415 1413 1416 1418 1420 1423 1424 1420 1420 1421 1420 1420 1417 1411 1400 1394 1385 1387 1383 1383 1376 1369 1360 1359 1355 1358 1359 1357 1356 1356 1357
1234 1231 1240 1252 1264 1275 1286 1296 1306 1317 1326 1336 1344 1353 1363 1372 1380 1388 1394 1401 1408 1412 1413 1405 1407 1407 1411 1414 1416 1418 1419 1419 1418 1418 1419 1414 1409 1404 1397 1393 1389 1388 1385 1385 1370 1361 1358 1358 1356 1358 1360 1359 1356 1354
1249 1248 1252 1261 1270 1279 1287 1297 1306 1315 1325 1333 1342 1350 1359 1368 1376 1385 1393 1398 1403 1408 1402 1401 1402 1403 1405 1407 1410 1411 1413 1413 1414 1414 1412 1409 1405 1403 1396 1393 1378 1383 1377 1375 1362 1356 1356 1355 1358 1359 1359 1356 1353 1351
1268 1267 1269 1273 1278 1285 1291 1299 1307 1316 1324 1333 1341 1349 1356 1365 1374 1384 1389 1391 1397 1405 1406 1401 1397 1398 1399 1401 1402 1404 1405 1407 1408 1408 1405 1402 1401 1403 1395 1376 1369 1371 1371 1365 1360 1358 1357 1357 1356 1356 1355 1354 1354 1353
1281 1279 1280 1282 1286 1290 1296 1303 1310 1318 1326 1334 1341 1348 1356 1363 1369 1375 1379 1380 1387 1401 1404 1401 1393 1390 1393 1396 1397 1398 1398 1398 1402 1402 1401 1398 1394 1393 1388 1373 1374 1370 1369 1361 1354 1356 1356 1355 1354 1354 1353 1351 1351 1352
1293 1290 1288 1290 1293 1297 1302 1307 1314 1321 1329 1336 1343 1348 1353 1364 1366 1374 1376 1378 1383 1394 1398 1395 1388 1389 1388 1388 1391 1392 1393 1393 1394 1394 1392 1391 1390 1390 1376 1366 1367 1364 1359 1356 1356 1356 1355 1354 1354 1353 1352 1350 1350 1350
1305 1301 1300 1299 1300 1303 1307 1312 1318 1324 1332 1339 1343 1349 1354 1358 1363 1368 1376 1381 1384 1392 1391 1389 1381 1379 1383 1386 1388 1388 1385 1379 1384 1384 1382 1388 1379 1369 1362 1359 1358 1353 1352 1350 1353 1354 1353 1353 1352 1351 1351 1350 1349 1349
1318 1314 1310 1309 1310 1311 1311 1312 1321 1328 1334 1339 1345 1352 1357 1359 1363 1372 1379 1383 1385 1385 1385 1379 1375 1373 1380 1382 1382 1382 1378 1376 1373 1369 1374 1373 1361 1355 1355 1356 1356 1354 1352 1353 1352 1351 1350 1350 1349 1349 1348 1348 1348 1348
1329 1326 1324 1321 1320 1320 1322 1326 1330 1335 1340 1345 1349 1355 1361 1364 1368 1374 1378 1378 1380 1379 1373 1371 1372 1372 1375 1376 1376 1375 1366 1364 1358 1356 1358 1351 1341 1342 1349 1354 1355 1356 1355 1353 1351 1350 1350 1348 1347 1347 1347 1347 1347 1347
1338 1336 1335 1335 1334 1334 1334 1337 1339 1341 1342 1346 1351 1359 1365 1368 1371 1371 1370 1369 1369 1364 1361 1364 1366 1368 1370 1373 1373 1368 1362 1361 1351 1357 1357 1344 1342 1346 1349 1352 1355 1354 1352 1350 1349 1349 1348 1347 1346 1345 1346 1345 1345 1345
1346 1344 1342 1342 1343 1344 1343 1344 1345 1346 1350 1354 1358 1362 1363 1366 1365 1363 1363 1359 1357 1358 1358 1360 1364 1365 1368 1368 1367 1360 1359 1354 1354 1353 1340 1337 1342 1348 1351 1352 1353 1352 1350 1350 1349 1348 1347 1345 1343 1343 1343 1344 1343 1343
1350 1349 1348 1346 1345 1347 1347 1349 1349 1349 1351 1353 1353 1358 1356 1355 1351 1345 1344 1345 1350 1355 1357 1359 1362 1362 1360 1359 1360 1357 1354 1353 1347 1344 1335 1340 1346 1349 1350 1351 1351 1351 1349 1348 1347 1347 1345 1345 1344 1344 1345 1346 1344 1343
1351 1350 1350 1349 1347 1346 1347 1348 1350 1352 1352 1352 1352 1350 1349 1346 1347 1348 1350 1352 1354 1356 1356 1357 1358 1356 1353 1359 1356 1356 1356 1347 1339 1332 1340 1346 1347 1349 1350 1349 1348 1349 1350 1350 1348 1347 1346 1346 1348 1347 1346 1347 1345 1344
1349 1350 1349 1349 1348 1346 1347 1349 1350 1352 1351 1350 1348 1348 1347 1346 1346 1348 1350 1350 1352 1352 1353 1353 1347 1349 1348 1348 1350 1348 1340 1334 1337 1342 1346 1348 1349 1351 1351 1350 1350 1351 1350 1350 1349 1350 1350 1349 1349 1350 1351 1350 1349 1348
1348 1350 1348 1348 1348 1347 1347 1348 1349 1349 1348 1347 1346 1346 1346 1344 1344 1346 1348 1349 1350 1352 1348 1343 1344 1342 1345 1342 1340 1338 1338 1340 1344 1346 1348 1349 1349 1349 1349 1349 1350 1351 1352 1352 1352 1352 1353 1351 1352 1353 1353 1352 1352 1352
1347 1347 1346 1346 1347 1347 1348 1348 1347 1346 1345 1344 1345 1345 1345 1346 1347 1348 1348 1348 1350 1349 1346 1341 1342 1342 1344 1340 1335 1339 1343 1346 1347 1348 1349 1348 1348 1349 1349 1350 1350 1352 1352 1353 1353 1353 1352 1354 1355 1355 1354 1355 1355 1355
1341 1341 1342 1343 1345 1346 1347 1346 1345 1341 1342 1343 1343 1344 1345 1345 1346 1347 1347 1348 1349 1348 1347 1344 1343 1339 1338 1339 1344 1346 1346 1346 1347 1347 1346 1346 1347 1348 1349 1348 1350 1351 1350 1351 1353 1355 1353 1356 1356 1357 1357 1358 1358 1357
1337 1337 1338 1339 1342 1344 1344 1343 1342 1339 1339 1341 1342 1343 1344 1344 1344 1345 1347 1348 1348 1348 1348 1346 1342 1342 1345 1346 1346 1346 1347 1347 1347 1347 1347 1347 1347 1348 1349 1350 1351 1349 1351 1353 1355 1354 1355 1356 1356 1357 1357 1358 1357 1358
1336 1336 1336 1338 1341 1342 1342 1340 1340 1340 1340 1340 1341 1342 1342 1343 1344 1345 1346 1346 1347 1345 1343 1343 1345 1347 1348 1348 1348 1348 1347 1347 1347 1347 1347 1346 1346 1347 1349 1349 1349 1349 1351 1352 1353 1354 1355 1356 1357 1356 1357 1357 1357 1358
1337 1336 1337 1339 1340 1341 1341 1341 1341 1340 1341 1339 1340 1341 1340 1341 1343 1345 1346 1346 1345 1348 1349 1348 1348 1348 1347 1347 1346 1345 1345 1345 1345 1344 1344 1344 1345 1346 1346 1346 1348 1349 1350 1351 1353 1353 1355 1356 1356 1356 1357 1357 1358 1359
1337 1337 1338 1339 1340 1340 1342 1340 1340 1338 1337 1337 1338 1337 1338 1340 1342 1344 1344 1345 1350 1352 1351 1351 1349 1347 1346 1344 1343 1343 1343 1342 1342 1342 1342 1342 1343 1344 1345 1345 1346 1348 1349 1350 1351 1353 1354 1355 1355 1356 1357 1358 1359 1360
1337 1338 1339 1340 1339 1339 1340 1338 1337 1337 1336 1334 1333 1336 1339 1341 1343 1341 1343 1351 1354 1354 1353 1352 1350 1348 1347 1345 1344 1342 1341 1340 1340 1340 1341 1342 1343 1343 1344 1344 1345 1346 1348 1349 1350 1351 1352 1354 1355 1356 1358 1359 1360 1362
1340 1343 1342 1340 1340 1339 1338 1338 1339 1337 1338 1338 1338 1337 1341 1343 1340 1341 1345 1352 1354 1355 1355 1353 1351 1350 1348 1347 1345 1343 1341 1340 1340 1340 1340 1340 1341 1342 1343 1343 1343 1344 1346 1348 1349 1350 1351 1353 1355 1356 1358 1360 1361 1363
1341 1347 1346 1344 1342 1339 1339 1337 1339 1340 1340 1340 1342 1344 1343 1341 1342 1343 1349 1354 1355 1355 1354 1353 1352 1350 1348 1347 1345 1343 1342 1341 1340 1340 1339 1339 1339 1340 1341 1341 1342 1342 1343 1345 1346 1348 1350 1352 1354 1356 1358 1360 1362 1364
1359 1361 1358 1354 1349 1345 1343 1343 1343 1341 1342 1343 1344 1344 1342 1341 1341 1351 1356 1357 1357 1355 1353 1352 1350 1350 1348 1347 1344 1343 1341 1340 1340 1340 1339 1339 1338 1338 1339 1340 1340 1341 1341 1342 1344 1346 1348 1350 1353 1355 1357 1360 1361 1364
1370 1370 1366 1358 1351 1348 1347 1347 1348 1349 1349 1351 1348 1344 1343 1344 1355 1361 1362 1360 1358 1355 1353 1351 1350 1348 1346 1345 1343 1342 1341 1340 1340 1339 1339 1338 1338 1338 1338 1339 1339 1339 1340 1342 1343 1345 1347 1349 1352 1354 1356 1358 1360 1362
1377 1375 1367 1362 1356 1354 1358 1360 1361 1359 1360 1357 1351 1346 1352 1363 1366 1364 1363 1360 1359 1357 1354 1351 1349 1347 1345 1344 1343 1341 1340 1340 1341 1341 1340 1340 1339 1340 1339 1339 1339 1340 1341 1342 1343 1345 1347 1349 1351 1353 1355 1357 1359 1361
1383 1380 1375 1370 1368 1364 1367 1367 1364 1362 1360 1359 1357 1360 1362 1366 1367 1365 1363 1361 1359 1357 1355 1353 1350 1347 1346 1344 1343 1341 1340 1339 1340 1341 1340 1341 1341 1341 1340 1341 1341 1341 1342 1343 1344 1345 1346 1348 1350 1353 1355 1356 1358 1361
1388 1383 1378 1377 1373 1371 1368 1365 1362 1359 1357 1356 1355 1356 1358 1363 1365 1365 1364 1364 1362 1359 1355 1352 1350 1348 1347 1345 1344 1342 1341 1340 1340 1340 1341 1341 1341 1341 1341 1342 1342 1342 1343 1344 1345 1346 1348 1349 1351 1353 1355 1357 1359 1361
1389 1386 1385 1379 1375 1372 1369 1366 1362 1358 1354 1353 1353 1355 1357 1360 1366 1371 1371 1367 1363 1360 1357 1354 1351 1349 1348 1348 1347 1345 1344 1343 1342 1341 1341 1341 1341 1341 1341 1341 1341 1342 1343 1344 1345 1347 1349 1350 1352 1354 1355 1358 1360 1362
1390 1386 1383 1380 1377 1373 1371 1369 1363 1356 1354 1355 1363 1363 1363 1365 1374 1380 1377 1373 1370 1366 1360 1357 1355 1353 1352 1350 1349 1348 1346 1345 1344 1343 1342 1342 1341 1341 1341 1341 1341 1341 1342 1344 1346 1347 1349 1351 1353 1354 1356 1358 1360 1362
Wind_Speed
30 29 31 31 38 37 41 43 42 39 39 38 43 37 39 39 35 34 27 28 27 17 18 12 18 16 12 13 9 4 3 9 6 7 8 9 9 11 13 18 17 13 5 9 11 10 13 10 13 19 17 24 22 15
28 29 29 26 32 34 40 41 41 39 39 38 40 40 37 38 37 33 26 24 23 20 6 14 21 21 20 15 10 8 6 2 2 3 3 4 7 4 8 12 13 11 5 4 5 6 11 6 10 9 13 12 14 15
22 18 24 27 31 32 35 38 38 39 36 38 40 42 36 37 36 38 32 23 18 19 17 22 25 17 21 25 19 17 16 12 13 13 6 4 6 7 10 9 10 6 13 8 16 15 18 18 16 18 19 20 20 22
21 15 24 26 30 31 31 33 34 37 35 37 37 38 42 36 39 36 35 26 24 8 6 13 13 23 23 21 23 24 24 21 17 15 11 7 8 8 11 11 13 12 12 11 18 16 19 20 20 12 12 17 24 25
26 17 22 26 26 25 28 31 31 34 33 34 36 39 36 40 37 36 35 30 27 19 2 7 8 14 15 20 25 22 27 26 23 16 7 10 15 13 11 13 16 16 16 11 8 11 10 12 3 7 15 16 13 9
25 22 20 21 22 23 24 27 28 32 31 31 33 32 33 33 36 34 19 36 34 24 6 4 5 10 14 16 21 25 24 27 25 18 10 23 25 13 5 11 18 21 21 27 15 21 16 14 13 14 14 7 11 11
26 20 19 18 18 20 22 24 25 29 29 27 29 27 31 28 39 35 8 9 28 35 7 4 4 8 15 16 19 23 26 22 18 20 19 21 19 14 12 18 18 23 33 33 8 10 15 16 12 7 8 4 7 4
26 27 20 17 18 20 20 23 26 25 25 25 23 22 30 24 34 32 18 5 23 29 6 3 3 4 10 14 16 14 13 17 13 12 12 13 21 13 6 10 19 25 26 22 15 12 11 9 7 7 5 2 4 8
35 24 23 22 17 18 21 24 26 26 25 23 24 21 27 22 15 15 16 12 27 9 5 5 5 4 9 10 5 5 10 5 8 8 11 8 6 8 11 17 19 24 19 15 9 9 10 11 11 9 10 7 4 2
32 33 29 21 19 23 20 23 28 28 25 28 28 8 4 7 27 31 14 4 5 4 6 4 9 5 8 8 4 4 5 4 5 9 9 8 14 24 25 12 12 12 6 8 10 10 8 9 8 9 10 10 11 10
29 27 27 29 26 24 23 24 27 35 22 9 5 6 32 17 7 4 4 5 5 3 7 10 17 8 10 7 3 6 3 5 3 5 6 4 7 14 12 7 6 9 8 7 7 9 11 12 12 11 8 7 8 8
24 24 22 22 28 32 35 25 16 8 6 8 25 18 12 3 2 3 5 4 5 5 7 8 9 15 8 7 6 6 3 2 2 7 3 3 3 10 10 8 7 6 6 3 4 6 6 5 4 4 5 6 7 9
19 23 18 12 13 17 16 11 18 29 26 18 7 5 5 4 5 5 8 5 5 4 7 10 5 7 8 9 4 3 3 3 4 3 2 3 9 9 6 3 3 1 1 1 1 2 2 2 2 2 4 7 7 7
9 11 17 18 8 8 13 12 13 12 5 3 5 5 5 5 5 6 7 7 5 5 9 12 4 5 8 6 1 3 1 2 2 3 2 5 6 5 3 2 3 2 4 4 4 4 4 5 5 4 3 3 2 2
5 6 6 11 14 4 8 10 16 9 1 2 3 3 6 6 2 2 2 4 4 6 7 3 4 7 3 2 3 1 2 4 4 2 5 7 7 5 4 4 5 6 6 6 8 9 10 9 7 7 6 6 6 4
5 6 3 7 10 7 6 10 15 9 3 3 4 2 3 4 5 4 6 8 5 2 3 8 4 3 3 3 4 5 3 1 3 3 5 5 6 4 4 4 6 8 8 9 8 8 7 6 6 6 4 4 5 6
6 4 7 6 6 3 6 15 14 4 3 3 2 4 5 3 4 4 4 5 7 5 4 3 3 2 2 2 2 2 1 3 4 4 3 3 4 3 2 2 4 4 2 2 3 3 3 4 4 3 2 5 6 7
3 6 10 9 5 2 5 8 4 3 4 4 3 3 5 1 3 4 3 3 6 4 3 0 1 3 2 2 1 2 3 2 2 1 1 2 3 3 2 2 5 5 4 2 1 2 2 2 3 1 3 4 4 6
10 12 10 10 7 4 3 4 4 3 2 2 2 3 1 2 3 3 3 4 3 3 5 2 1 3 3 1 4 3 2 2 2 2 2 2 2 2 2 2 3 4 3 1 1 1 2 2 2 2 3 3 3 4
8 9 9 9 9 4 3 3 3 4 3 4 3 3 1 0 1 0 1 3 4 3 2 2 3 3 3 3 3 4 2 1 2 3 3 4 8 9 6 5 6 6 6 5 4 3 3 2 2 3 4 5 6 5
0 2 3 5 5 5 2 2 3 2 1 3 4 5 2 2 2 1 0 2 1 2 2 4 4 3 4 6 6 6 6 6 7 8 7 6 9 9 9 7 6 6 7 6 5 4 5 3 3 4 5 6 7 7
2 4 5 4 3 3 2 1 1 1 3 2 6 5 3 4 5 5 4 4 1 6 6 8 9 10 10 9 9 7 8 7 8 8 10 5 6 10 9 9 8 8 7 6 6 6 6 5 6 6 7 7 7 7
5 5 2 2 1 2 2 2 3 4 4 3 4 3 3 2 3 6 3 3 5 8 8 8 9 8 8 8 9 9 9 9 8 9 9 7 6 7 9 11 9 9 10 9 7 7 8 9 9 7 7 9 9 9
4 3 2 2 2 1 0 0 2 2 2 2 2 2 3 2 0 3 3 3 4 7 10 11 9 8 7 7 6 7 6 6 7 7 10 9 8 7 7 8 12 12 12 10 9 9 9 10 10 8 8 8 8 9
0 4 3 2 1 0 1 1 1 1 2 1 1 3 2 1 1 2 3 4 5 7 10 10 9 8 8 8 9 9 7 4 3 4 7 11 8 7 8 9 10 12 13 13 13 12 10 10 11 9 9 10 9 9
5 9 8 8 5 4 4 1 2 3 2 1 2 2 1 1 1 3 3 9 10 10 13 14 12 11 9 9 10 10 9 6 5 5 4 6 9 10 11 11 12 12 13 15 15 13 12 12 13 12 11 10 10 11
6 8 8 10 8 5 1 3 2 1 2 2 2 2 1 3 3 3 7 13 10 12 11 10 10 10 11 11 10 8 9 5 4 5 7 8 7 8 8 9 11 9 7 13 13 14 13 13 14 13 12 11 11 10
6 15 12 20 9 5 2 3 3 5 4 6 7 1 2 3 5 6 8 12 13 14 14 13 11 11 11 12 11 10 8 4 4 5 4 4 3 4 4 5 7 7 5 8 10 11 12 11 12 12 13 14 13 11
11 24 19 10 10 5 6 6 7 8 11 9 4 1 4 7 9 10 12 12 12 13 14 15 14 14 10 8 9 11 6 3 1 2 2 1 1 2 1 2 3 5 5 8 9 8 9 11 11 10 12 13 11 8
11 20 10 10 6 5 11 13 14 15 12 9 6 16 21 18 20 18 18 19 20 19 17 15 15 15 13 12 12 10 8 4 5 2 1 1 2 2 1 1 2 3 4 5 6 8 9 12 11 11 11 9 10 11
14 15 8 10 5 15 18 21 17 12 7 3 5 2 13 10 10 25 29 23 21 20 21 20 19 16 16 15 16 10 6 4 2 2 2 1 1 2 3 3 4 4 6 6 6 9 11 11 12 11 10 11 10 11
12 11 11 8 12 15 16 17 10 5 3 3 3 3 7 8 6 11 27 28 26 29 25 23 22 19 17 13 11 9 6 5 5 4 2 1 2 3 4 5 5 5 8 9 9 10 11 11 11 11 11 11 12 13
17 13 10 8 9 9 14 13 5 4 3 8 12 14 16 12 7 12 16 22 26 25 23 21 15 16 13 10 10 11 11 10 8 6 5 4 2 1 1 1 0 3 7 10 12 12 11 10 10 11 13 13 13 14
Wind_Direction
282 268 255 239 226 229 216 214 211 210 209 212 205 206 206 208 209 206 209 212 211 229 243 238 246 248 243 241 247 247 228 220 228 235 249 251 251 252 263 261 275 287 242 210 233 244 256 255 256 237 244 249 259 258
290 263 242 223 211 207 203 204 204 205 207 206 208 202 203 204 206 204 207 208 216 229 251 237 242 238 238 250 268 265 257 260 254 281 293 313 256 256 262 262 273 275 222 276 229 235 257 260 290 330 334 293 292 286
319 251 210 197 192 193 194 196 198 201 203 203 205 200 201 201 203 204 201 200 201 223 251 249 242 240 233 234 238 261 256 249 261 273 302 272 264 287 267 277 306 280 330 310 277 254 264 289 269 273 289 290 277 277
37 107 158 170 175 180 187 190 193 194 196 198 199 201 201 200 200 203 203 197 193 178 236 263 247 235 235 237 234 235 248 259 264 261 254 257 268 281 278 289 280 280 309 292 287 269 294 292 278 290 312 301 278 269
53 98 132 149 160 167 175 181 185 188 191 195 195 199 202 205 201 200 207 206 200 199 254 255 234 233 231 231 232 235 236 240 249 250 233 245 261 278 263 268 263 259 268 256 256 260 282 296 334 299 304 310 285 290
61 81 107 134 149 159 167 173 179 183 185 190 191 196 200 203 196 189 201 218 214 216 262 251 267 230 227 224 222 224 234 236 237 241 251 257 253 244 272 259 270 274 311 298 256 280 305 298 300 292 298 301 277 306
59 79 98 117 138 147 159 167 170 174 178 183 186 194 189 197 188 184 194 215 221 211 223 237 245 219 220 217 230 236 236 232 230 242 238 249 259 252 249 256 271 285 270 280 263 300 289 275 270 288 299 299 245 351
61 62 88 113 128 142 148 156 162 165 171 172 178 190 185 192 186 194 198 103 173 181 193 242 238 204 192 214 229 239 238 221 216 227 240 235 249 234 258 262 258 267 278 264 273 278 270 283 270 274 298 311 233 212
54 71 78 83 116 146 144 155 147 161 158 162 179 189 170 170 173 184 200 193 175 169 182 218 224 223 178 222 240 259 215 183 188 217 229 225 235 221 237 258 280 279 266 254 256 267 268 262 269 266 259 261 269 244
53 56 70 89 87 95 129 147 143 146 160 161 142 90 82 117 129 128 134 129 159 199 225 244 230 224 173 185 221 235 176 202 214 220 206 222 246 249 250 263 263 305 295 268 268 269 256 262 271 271 266 264 263 263
53 62 66 73 89 111 124 127 132 128 114 113 79 76 123 101 83 101 149 172 162 221 223 226 230 229 210 232 236 227 191 203 240 163 209 225 241 228 204 200 258 278 277 273 276 284 287 285 283 275 264 264 279 286
52 56 72 97 102 115 114 100 88 90 125 143 131 124 121 110 140 177 176 173 194 221 182 206 211 215 207 200 222 214 245 211 247 141 213 244 133 143 164 187 234 268 289 315 337 327 324 326 321 283 271 260 264 280
54 53 60 61 108 143 134 93 103 107 107 112 121 137 173 167 195 208 179 195 195 187 206 184 195 197 186 206 234 232 206 248 131 208 241 27 114 155 170 191 228 273 12 31 15 21 30 345 342 309 286 275 271 276
39 45 43 42 60 139 178 181 154 134 103 160 161 158 223 177 227 203 220 200 158 173 183 183 175 212 213 184 212 247 332 258 249 237 152 116 127 138 142 139 155 116 109 93 93 92 76 61 63 67 58 20 12 339
357 4 7 27 28 44 165 172 193 196 314 238 195 223 221 228 221 310 197 179 176 187 188 160 242 206 164 138 223 205 225 235 233 83 95 100 113 107 106 84 87 87 92 93 86 82 77 71 60 55 48 30 34 38
296 322 294 356 11 26 145 165 179 202 233 247 224 251 206 248 186 199 209 221 201 225 227 233 200 167 179 161 195 219 237 227 100 79 101 119 126 128 117 110 109 106 97 92 86 79 78 77 66 57 68 72 87 99
272 249 253 298 342 49 156 182 197 220 236 218 224 251 259 322 31 92 160 180 201 191 221 211 157 169 130 223 225 225 340 62 99 89 83 118 155 174 143 153 156 133 115 106 91 83 77 81 73 71 94 101 105 111
224 252 254 266 282 181 198 203 220 218 237 237 234 168 206 204 157 157 176 176 183 236 225 123 101 199 200 213 110 59 90 100 90 106 86 154 176 168 130 183 197 199 207 167 32 5 95 62 56 100 117 111 99 103
262 260 242 238 228 200 219 231 227 242 198 195 190 164 170 157 176 138 160 184 242 294 313 258 209 243 218 247 46 42 38 45 48 19 350 333 255 240 280 328 242 226 253 242 131 176 102 159 171 159 147 149 140 124
270 255 236 218 202 198 227 220 225 267 203 180 173 184 200 137 100 79 147 176 199 202 212 238 260 4 7 32 19 3 2 321 281 275 293 278 252 233 224 234 236 235 222 209 185 165 137 153 150 166 169 157 141 136
50 259 197 155 194 212 254 247 221 12 82 206 174 176 188 173 192 190 254 187 205 245 250 264 275 284 304 305 303 292 288 275 266 260 284 245 254 204 209 213 211 209 205 202 193 196 191 211 202 206 170 157 159 147
219 147 125 156 173 197 223 231 271 200 221 153 179 207 201 176 164 193 154 194 202 34 24 359 338 319 305 291 306 284 279 277 265 254 250 240 210 206 210 216 196 206 205 211 212 213 201 196 199 185 168 165 156 155
113 115 108 112 127 171 188 218 226 200 210 208 188 203 172 137 97 149 218 78 77 32 18 3 346 337 320 311 290 274 270 274 256 253 242 214 213 211 216 227 209 212 206 211 212 212 204 198 196 174 171 158 153 151
125 85 61 52 357 115 196 250 211 225 253 240 190 120 74 57 162 222 75 74 75 45 25 12 6 358 1 6 355 332 305 259 252 246 215 206 203 202 212 225 216 210 211 214 209 207 202 194 194 187 170 164 154 147
118 25 8 56 3 187 148 110 8 64 76 66 46 72 65 359 246 49 96 109 74 32 12 1 5 6 354 346 352 352 346 352 327 267 236 214 221 210 208 219 228 224 209 211 211 202 201 199 196 195 185 176 169 160
53 29 13 6 3 357 7 92 64 48 70 66 75 66 283 214 117 84 83 35 25 6 353 352 345 340 343 339 332 328 330 322 319 303 291 277 242 236 233 223 225 227 228 221 222 217 214 206 198 196 188 184 181 175
38 4 338 341 310 319 32 60 54 57 81 63 52 356 247 183 126 71 54 18 360 348 344 337 333 327 321 318 317 311 320 304 285 286 297 295 274 248 235 234 232 229 236 219 217 214 212 205 199 198 194 192 190 186
6 4 337 320 328 11 52 38 34 22 39 357 318 48 358 34 51 37 19 359 360 1 1 354 348 337 328 325 328 326 322 284 302 316 326 317 271 224 245 254 233 221 205 207 211 207 207 206 203 197 194 196 197 197
4 349 342 355 355 19 49 28 2 12 359 329 306 344 78 63 31 30 19 16 15 10 5 360 357 355 350 337 329 328 306 248 255 325 330 32 24 17 337 283 218 191 187 186 187 193 205 202 194 189 187 195 199 198
336 344 337 348 337 356 15 350 328 315 317 295 301 106 101 78 58 51 42 34 27 17 10 8 8 9 4 1 350 343 338 231 207 219 285 324 301 298 254 190 192 211 224 226 202 188 189 185 179 179 185 184 172 166
332 334 338 343 310 335 333 327 326 306 287 259 244 133 144 142 68 34 30 26 22 18 17 16 14 11 8 9 3 354 15 11 200 212 229 238 231 245 248 244 237 231 224 210 191 182 178 177 178 177 170 166 165 161
334 338 323 311 318 323 333 337 319 282 275 261 131 75 143 97 75 34 5 8 19 12 9 11 11 18 21 21 24 36 46 43 54 62 60 39 322 290 277 273 264 237 218 208 194 181 177 179 173 170 171 163 158 163
313 317 320 331 331 333 334 334 293 290 283 62 30 28 51 70 79 22 6 18 19 3 3 5 13 21 9 24 27 20 17 19 16 11 6 355 339 324 310 333 57 170 179 188 188 180 176 175 173 166 164 165 162 161